Regional Weather Roundup
Issued by NWS Pendleton, OR

Home | Current Version | Previous Version | Text Only | Print | Product List | Glossary On
Versions: 1 2 3 4 5 6 7 8 9 10 11 12 13 14 15 16 17 18 19 20 21 22 23 24 25 26 27 28 29 30 31 32 33 34 35 36 37 38 39 40 41 42 43 44 45 46 47 48 49 50
000
ASUS46 KPDT 111604
RWRPDT
PENDLETON REGIONAL WEATHER ROUNDUP
NATIONAL WEATHER SERVICE PENDLETON OREGON
800 AM PST MON DEC 11 2017

NOTE: FAIR INDICATES FEW OR NO CLOUDS BELOW 12,000 FEET WITH NO
SIGNIFICANT WEATHER AND/OR OBSTRUCTIONS TO VISIBILITY.

# INDICATES UNOFFICIAL STATION AND DATA

WAZ520-111710-
EAST SLOPES OF WASHINGTON CASCADES

CITY            SKY/WX      TMP DP  RH  WIND    PRES   REMARKS
#BULLFROG       N/A         26  22  85  NE2     N/A
#CLE ELUM HS    N/A         27  21  78  E1      30.51S
#CLE ELUM LAKE  N/A         21  20  96  CALM    30.61R
#EASTON DOT     N/A         22  20  92  N9      N/A
#ELK HTS DOT    N/A         25  24  96  E3      N/A
#GLENWOOD       N/A         26  22  85  CALM    30.71R
#NELSON 3SW     N/A         21  19  92  CALM    30.92S
#NILE           N/A         25  22  88  CALM    29.94R
#TEANAWAY 4NE   N/A         25  21  84  SE1     N/A
#TROUT LAKE 1NE N/A         25  22  88  SE1     30.70S
#TROUT LAKE 1E  N/A         25  22  88  CALM    30.61S
$$

WAZ521-111710-
SIMCOE HIGHLANDS

CITY            SKY/WX      TMP DP  RH  WIND    PRES   REMARKS
#BICKLETON HS   N/A         N/A N/A N/A NE1     30.53S
#CENTERVILLE 1SWN/A         25  21  84  CALM    30.68S
#GOLDENDALE 4W  N/A         26  12  55  E7      30.63S
#GOODNOE HILLS  N/A         28  21  75  SE3     30.54S
#LYLE 6NE       N/A         27  24  88  NE2     30.72R
#PITT 4SE       N/A         22  21  96  CALM    30.75R
$$

WAZ026-111710-
KITTITAS VALLEY

CITY            SKY/WX      TMP DP  RH  WIND    PRES   REMARKS
ELLENSBURG AP   N/A         N/A N/A N/A MISG    30.62R
#ELLENSBURG CWU N/A         27  22  81  CALM    30.66R
#ELLENSBURG 3NE N/A         26  23  88  CALM    28.66S
#ELLENSBURG 1E  N/A         28  23  81  CALM    30.76S
#KITTITAS 3S    N/A         28  24  85  CALM    30.69S
#MANASTASH RDG  N/A         24  24  100 CALM    N/A
#RYEGRASS DOT   N/A         24  23  96  NE5     N/A
$$

WAZ027-111710-
YAKIMA VALLEY

CITY            SKY/WX      TMP DP  RH  WIND    PRES   REMARKS
SUNNYSIDE AP    CLOUDY      29  25  85  CALM    30.69R
YAKIMA AIRPORT  CLOUDY      32  26  78  CALM    30.67R
YAKIMA-VAGABOND CLOUDY      29  24  81  CALM    30.63R
#DONALD 2NE     N/A         29  15  55  SW1     29.50S
#GRANDVIEW      N/A         30  24  78  CALM    30.65R
#MABTON         N/A         31  28  88  CALM    30.68S
#MOXEE 2E       N/A         29  N/A N/A CALM    30.62F
#NACHES 2SW     N/A         28  25  88  CALM    30.61S
#OUTLOOK DOT    N/A         30  27  88  CALM    30.64S
#PARKER DOT     N/A         31  26  81  S1      30.67R
#TERRACE HTS    N/A         29  26  88  CALM    30.69R
#TOPPENISH      N/A         31  26  81  CALM    30.64S
#I82 S UMTANUM RN/A         27  23  85  NE2     N/A
#UNION GAP DOT  N/A         31  27  85  S1      30.70S
#W YAKIMA       N/A         29  25  85  CALM    30.73R
#WHITE SWAN 5E  N/A         30  26  85  CALM    30.74R
#WILEY CITY 3W  N/A         29  23  78  CALM    30.61R
#ZILLAH DOT     N/A         31  26  81  W5      N/A
$$

WAZ028-111710-
LOWER COLUMBIA BASIN...WASHINGTON

CITY            SKY/WX      TMP DP  RH  WIND    PRES   REMARKS
PASCO           CLOUDY      31  27  85  E3      30.72R
PROSSER AWOS    N/A         30  28  92  CALM    30.73R
RICHLAND AWOS   CLOUDY      32  29  89  S6      30.72R
#BENTON CITY    N/A         29  26  88  CALM    30.63R
#CONNELL 5N     N/A         27  25  92  CALM    30.72S
#CONNELL 5NW    N/A         28  25  88  CALM    30.67R
#ELTOPIA 6NW    N/A         29  27  92  CALM    29.62R
#KAHLOTUS       N/A         26  25  96  CALM    30.72R
#KENNEWICK 3S   N/A         29  26  88  CALM    30.73R
#PATERSON       N/A         31  26  81  CALM    30.71R
#PROSSER DOT    N/A         31  27  85  CALM    30.70R
#TOUCHET 2S     N/A         30  27  88  CALM    30.71R
#WEST PASCO     N/A         31  27  85  CALM    30.76F
$$

WAZ029-111710-
FOOTHILLS OF THE BLUES...WASHINGTON

CITY            SKY/WX      TMP DP  RH  WIND    PRES   REMARKS
WALLA WALLA AP  CLOUDY      29  23  78  CALM    30.65S
#CLYDE 6NW      N/A         27  24  88  N1      30.71R
#DAYTON SCHOOL  N/A         24  16  71  E1      30.61S
#DELANEY DOT    N/A         28  23  81  SE1     30.68S
#LOWDEN 2SE     N/A         30  28  92  CALM    30.67R
#PLEASANT VIEW 1N/A         24  23  96  CALM    30.77S
#PRESCOTT       N/A         30  26  85  CALM    30.71S
#WHITMAN COLLEGEN/A         29  25  85  NW2     30.71S
#WAITSBURG 5S   N/A         25  23  92  SE3     30.83S
#WAITSBURG 6SSE N/A         24  20  84  E3      30.72R
#WALLA WALLA 5E N/A         28  25  88  CALM    N/A
#WHITMAN MISSIONN/A         30  27  88  CALM    30.74R
$$

WAZ030-111710-
BLUE MOUNTAINS...WASHINGTON

CITY            SKY/WX      TMP DP  RH  WIND    PRES   REMARKS
#DIXIE 5SE      N/A         20  18  92  CALM    30.45R
$$

ORZ009-041-WAZ024-111710-
COLUMBIA RIVER GORGE

CITY            SKY/WX      TMP DP  RH  WIND    PRES   REMARKS
HOOD RIVER AP   CLOUDY      32  25  75  E7      30.68R
THE DALLES AP   CLOUDY      33  24  69  SE9     30.71R
#ARLINGTON AIRPON/A         29  26  88  E2      30.74R
#ARLINGTON HS   N/A         31  25  78  CALM    30.64R
#CELILO DOT     N/A         33  22  63  S3      N/A
#LYLE           N/A         33  27  78  E2      30.73R
#MARYHILL       N/A         30  24  78  N3      N/A
#MURDOCK        N/A         32  26  78  E3      30.69R
#RUFUS DOT      N/A         33  N/A N/A SE6     N/A
#SMITHVILLE     N/A         33  26  75  SE3     30.66R

$$

ORZ510-111710-
NORTH CENTRAL OREGON

CITY            SKY/WX      TMP DP  RH  WIND    PRES   REMARKS
#ANTELOPE       N/A         19  17  92  NE1     30.61S
#CHENOWITH 1W   N/A         24  23  96  E14     N/A    WCI 12
#COW CYN RST AREN/A         18  N/A N/A NE1     N/A
#DUFUR          N/A         26  22  85  E3      30.68S
#DUFUR 9E       N/A         21  20  96  CALM    30.78S
#GRASS VALLEY 1SN/A         22  21  96  CALM    30.55R
#KENT DOT       N/A         21  16  81  CALM    N/A
#MAUPIN SCHOOL  N/A         29  21  72  CALM    30.69S
#MORO SCHOOL    N/A         25  25  100 E7      30.58R
#SHANIKO 5WSW   N/A         17  N/A N/A CALM    N/A
#SHANIKO 4NW    N/A         17  15  92  CALM    30.48R
#TYGH VALLEY 2NEN/A         28  23  81  CALM    30.71R
#WAPANITIA AIRPON/A         24  20  84  CALM    30.73R
#WASCO DOT      N/A         29  25  85  E8      N/A
#WASCO 5NE      N/A         28  20  71  E1      30.72R
$$

ORZ511-111710-
CENTRAL OREGON

CITY            SKY/WX      TMP DP  RH  WIND    PRES   REMARKS
BEND AIRPORT    MOCLDY       9   5  83  CALM    30.52R FOG
PRINEVILLE AP   FRZFOG      12  10  91  CALM    30.52S VSB<1/4
REDMOND AIRPORT CLOUDY      17  16  96  CALM    30.53R FOG
#ASHWOOD SCHOOL N/A         18  15  88  SE3     30.49S
#BEND 1SW       N/A         10   8  91  CALM    N/A
#BEND-AWBREY    N/A         16  14  92  SE2     30.69S
#BEND-KIM LN    N/A         14  12  92  CALM    30.67R
#CULVER         N/A         20  17  88  SW1     30.57R
#CULVER 8W      N/A         20  14  77  CALM    30.49R
#LAKE BILLY CHINN/A         20  N/A N/A S3      30.66R
#MADRAS 4S      N/A         20  -5  32  S6      N/A
#POWELL BUTTE   N/A         15  10  80  W1      30.39S
#PRINEVILLE     N/A         16  14  92  CALM    30.81S
#PRINEVILLE 3N  N/A         12  10  91  CALM    30.72R
#WARM SPRINGS   N/A         26  21  81  CALM    30.52S

$$


ORZ509-111710-
EAST SLOPES OF OREGON CASCADES

CITY            SKY/WX      TMP DP  RH  WIND    PRES   REMARKS
SISTERS AWOS    N/A         16  14  92  CALM    N/A
#BLUE BOX PASS  N/A         16  N/A N/A CALM    N/A
#CAMP SHERMAN   N/A         18  14  84  CALM    30.78R
#LA PINE DOT    N/A          1  -2  87  CALM    N/A
#LA PINE 4NW    N/A          0  -5  79  CALM    30.78R
#LAVA BUTTE DOT N/A         17  14  88  SE1     N/A
#SISTERS ODOT   N/A         16  14  92  CALM    N/A
#SISTERS 3N     N/A         18  12  77  CALM    30.50S
#SUNRIVER       N/A         11   8  87  S2      30.68F
#TUMALO 3W      N/A         12  10  91  CALM    30.58S
#WANOGA BUTTE D N/A         39  -6  14  W10     N/A

$$

ORZ044-111710-
LOWER COLUMBIA BASIN...OREGON

CITY            SKY/WX      TMP DP  RH  WIND    PRES   REMARKS
HERMISTON       CLOUDY      31  26  81  CALM    30.69R
#BOARDMAN SCHOOLN/A         32  27  82  CALM    30.69S
#BOARDMAN 8SW   N/A         31  28  88  CALM    30.72S
#ECHO 8SW       N/A         31  28  88  CALM    30.69R
#I-84 EX 198 DOTN/A         28  27  96  CALM    N/A
#IONE SCHOOL    N/A         29  14  53  CALM    30.73S
$$

ORZ507-111710-
NORTHERN FOOTHILLS OF THE BLUES

CITY            SKY/WX      TMP DP  RH  WIND    PRES   REMARKS
PENDLETON AIRPT CLOUDY      27  25  92  NW3     30.63R FOG
#ADAMS 3WNW     N/A         26  23  88  NE1     30.71S
#ATHENA         N/A         25  23  92  CALM    30.75R
#HELIX SCHOOL   N/A         26  24  92  N2      30.71S
#HELIX 3N       N/A         25  24  96  CALM    30.55R
#HOLDMAN 5SE    N/A         28  26  92  CALM    30.60S
#HOLDMAN 6E     N/A         25  24  96  N2      30.52R
#M-F GROVE ELEM N/A         28  24  85  CALM    30.61S
#M-FREEWATER 5SEN/A         26  22  85  NE3     30.61R
#PENDLETON DNTN N/A         29  24  81  CALM    30.60S
#PDT AQUATIC CTRN/A         28  26  92  W1      30.63R
#PDT SUNRIDGE   N/A         28  25  88  CALM    30.66S
#PENDLETON 6SE  N/A         27  25  92  NW1     30.68R
#PENDLETON 7NW  N/A         29  24  81  CALM    26.89S
#PILOT ROCK 1S  N/A         26  19  74  CALM    30.60R
#PILOT ROCK     N/A         27  23  85  CALM    30.61R
#TUTUILLA       N/A         25  23  92  CALM    30.69R
#UMAPINE 2E     N/A         30  27  88  CALM    30.66R
#WESTON SCHOOL  N/A         24  19  81  CALM    30.52S

$$

ORZ508-111710-
SOUTHERN FOOTHILLS OF THE BLUES

CITY            SKY/WX      TMP DP  RH  WIND    PRES   REMARKS
LEXINGTON       CLOUDY      27  25  92  CALM    30.66S
#AJAX           N/A         23  16  74  N1      30.68S
#CONDON 5W      N/A         19  16  88  CALM    30.47S
#FOSSIL SCHOOL  N/A         21  19  92  N2      30.45R
#HEPPNER EOC    N/A         24  22  92  CALM    30.66S
#HEPPNER 4NE    N/A         21  19  92  CALM    30.72S
#LEXINGTON 2SE  N/A         27  23  85  CALM    30.60R
#MIKKALO        N/A         28  24  85  E2      30.71S
#OLEX 4N        N/A         28  25  88  CALM    30.62R
#RUGGS 5NE      N/A         22  22  100 CALM    30.72R
#RUGGS 2SW      N/A         21  19  92  CALM    30.77R

$$

ORZ502-503-111710-
BLUE MOUNTAINS

CITY            SKY/WX      TMP DP  RH  WIND    PRES   REMARKS
MEACHAM         PTCLDY      22  16  77  CALM    30.48R
#BATTLE MTN DOT N/A         19  14  80  S3      N/A
#GRANITE        N/A          4  N/A N/A CALM    30.58S
#GREENHORN 9SW  N/A         18  14  84  NE6     26.68S
#LADD CYN SMT   N/A         19  18  96  SE13G26 N/A    WCI  6
#LADD CREEK ODOTN/A         21  -27 10  S10     N/A
#LONG CREEK HS  N/A         17  17  100 CALM    30.48R
#N POWDER DOT   N/A         22  20  92  W5      N/A
#PIKES PEAK     N/A         17  14  88  CALM    27.99S
#SUMMERVILLE 5NWN/A         21  19  92  S2      28.51S
#TOLLGATE       N/A         25  15  65  NE2     30.25R
#TROY SCHOOL    N/A         20  18  92  W3      30.60S
#UKIAH          N/A          6   4  91  CALM    30.66S
#WESTON 4E      N/A         19  17  92  CALM    30.68S
$$

ORZ505-111710-
JOHN DAY BASIN

CITY            SKY/WX      TMP DP  RH  WIND    PRES   REMARKS
JOHN DAY        PTCLDY      24  17  74  E9      30.48S
#ANTELOPE 9ESE  N/A         26  22  85  S2      N/A
#MITCHELL 8NW   N/A         16  14  92  CALM    30.79S
#MONUMENT HS    N/A         20  16  84  SE1     30.53R
#MT. VERNON 5SE N/A         28  15  58  CALM    30.41S
#SPRAY SCHOOL   N/A         24  N/A N/A N1      N/A
#WINLOCK        N/A         26  24  92  CALM    30.44S
$$

ORZ506-111710-
OCHOCO AND JOHN DAY HIGHLANDS

CITY            SKY/WX      TMP DP  RH  WIND    PRES   REMARKS
#HORSE RIDGE DO N/A         18  10  70  E14     N/A    WCI  4
#IZEE 6NW       N/A         11   9  91  N1      N/A
#PAULINA ODOT   N/A          4   1  87  SE1     N/A
#PINE MTN OBS   N/A         42  -5  13  S13     N/A    WCI 35
#PRAIRIE CITY   N/A         13   6  73  CALM    30.65S
#SENECA         N/A          0  N/A N/A CALM    N/A
#SENECA 9NW     N/A          1  -2  87  CALM    30.82S
$$

ORZ049-111710-
GRANDE RONDE VALLEY

CITY            SKY/WX      TMP DP  RH  WIND    PRES   REMARKS
LA GRANDE       PTCLDY      22  20  92  VRB6    30.60S
#COVE SCHOOL    N/A         17  14  88  CALM    30.56S
#COVE 6NW       N/A         24  20  84  SE6     30.74F
#ELGIN 3N       N/A         16   9  73  CALM    30.54R
#ELGIN 1E       N/A         16  11  80  CALM    N/A
#IMBLER SCHOOL  N/A         18  15  88  CALM    30.53F
#ISLAND CITY 4N N/A         26  24  92  CALM    30.43S
#LADD CYN DOT   N/A         22  20  92  E3      N/A
#UNION 1S       N/A         25  21  84  S9      30.76S
$$

ORZ050-111710-
WALLOWA COUNTY

CITY            SKY/WX      TMP DP  RH  WIND    PRES   REMARKS
#IMNAHA SCHOOL  N/A         17  14  88  SE1     30.58F
#IMNAHA 10S     N/A         18  15  88  SW5     30.50F
#JOSEPH         N/A         15   8  73  CALM    30.90S
#JOSEPH 3N      N/A         14   9  80  CALM    30.51R
#JOSEPH 3W      N/A         16  15  96  CALM    30.90R
#LOSTINE        N/A         17  15  92  CALM    30.62R
#LOSTINE 3SE    N/A         17  15  92  N1      30.59R
#MT HOWARD 8000 N/A         45  -38  2  SE2     30.53S
#PROMISE 1S     N/A         18  15  88  S1      30.85R
#WALLOWA SCHOOL N/A         18  16  92  CALM    30.53F



$$



USA.gov is the U.S. government's official web portal to all federal, state and local government web resources and services.